[[{"header":{"parameterUnit":"m.s-1","parameterCategory":1,"la1":30.2992,"la2":30.254,"lo1":-89.0895,"lo2":-89.0443,"dy":0.0025,"dx":0.0025,"nx":19,"ny":19,"refTime":"2026-05-14T21:00:00:Z","depth":0,"parameterNumber":2,"parameterNumberName":"U-component_of_WINDS"},"data":[0,0,0,-3.2151,-3.2151,-3.2143,-3.2143,-3.2154,-3.2154,0,0,0,0,0,0,0,0,0,0,0,-3.2165,-3.2166,-3.2151,-3.2151,-3.2143,-3.2143,-3.2154,-3.2154,0,0,0,0,0,0,0,0,0,0,0,-3.2165,-3.2165,-3.2166,-3.2151,-3.2143,-3.2143,-3.2153,-3.2152,0,0,0,0,0,0,0,0,0,0,-3.2156,-3.218,-3.2165,-3.2166,-3.2151,-3.2143,-3.2143,-3.2152,-3.2152,-3.2166,0,-3.218,0,-3.2168,-3.2156,-3.2156,0,0,0,-3.2142,-3.218,-3.2168,-3.2166,-3.2151,-3.2144,-3.2144,-3.2152,-3.2152,-3.2167,-3.218,-3.218,-3.2168,-3.2156,-3.2156,-3.2264,-3.2265,0,0,-3.2143,-3.217,-3.2167,-3.2169,-3.2171,-3.2145,-3.2144,-3.2152,-3.2169,-3.218,-3.218,-3.2168,-3.2156,-3.2156,-3.2263,-3.2265,0,0,0,-3.215,-3.217,-3.2157,-3.2169,-3.2166,-3.2145,-3.2144,-3.2168,-3.2162,-3.218,-3.2168,-3.2156,-3.2157,-3.2262,-3.2264,-3.2334,0,0,0,-3.215,-3.2175,-3.2158,-3.2174,-3.2166,-3.2167,-3.2161,-3.2161,-3.2161,-3.2168,-3.2156,-3.2157,-3.2261,-3.2263,-3.233,-3.2362,0,0,0,-3.2162,-3.2176,-3.2179,-3.2176,-3.2174,-3.2166,-3.216,-3.2161,-3.2155,-3.2156,-3.2157,-3.2261,-3.2263,-3.2326,-3.2356,-3.2398,0,0,0,-3.2182,-3.2241,-3.218,-3.2243,-3.2174,-3.2211,-3.2159,-3.2185,-3.2195,-3.2157,-3.2261,-3.2264,-3.2325,-3.2352,-3.2394,-3.2435,-3.2456,0,0,-3.2272,-3.2253,-3.2288,-3.2233,-3.2288,-3.221,-3.2275,-3.2258,-3.2234,-3.2256,-3.2258,-3.2332,-3.2355,-3.2397,-3.2568,-3.2584,0,0,0,-3.2325,-3.235,-3.2359,-3.237,-3.2361,-3.2354,-3.2325,-3.232,-3.2337,-3.2251,-3.2359,-3.2372,-3.2395,-3.2414,-3.2428,-3.2445,-3.2274,-3.2274,-3.2274,-3.2488,-3.2456,-3.2511,-3.2478,-3.2491,-3.2462,-3.2469,-3.2456,-3.2418,-3.2445,-3.245,-3.2557,-3.258,-3.2591,-3.261,-3.2472,-3.2472,-3.2472,-3.2473,-3.2615,-3.2645,-3.2597,-3.2633,-3.2599,-3.2629,-3.2606,-3.2579,-3.2602,-3.255,-3.2569,-3.2513,-3.261,-3.2624,-3.2478,-3.2477,-3.2476,-3.2476,-3.2475,-3.2715,-3.2724,-3.2718,-3.2733,-3.2748,-3.2715,-3.274,-3.2708,-3.2679,-3.2698,-3.2699,-3.2698,-3.269,-3.2702,-3.2702,-3.2702,-3.2703,-3.2703,-3.2703,-3.282,-3.2811,-3.2836,-3.2834,-3.2838,-3.284,-3.2816,-3.282,-3.2815,-3.279,-3.279,-3.275,-3.2627,-3.2595,-3.2709,-3.2708,-3.2707,-3.2706,-3.2706,-3.2955,-3.292,-3.2959,-3.2964,-3.2959,-3.2977,-3.2939,-3.295,-3.2949,-3.2963,-3.2921,-3.2836,-3.2813,-3.2802,-3.2775,-3.2928,-3.2928,-3.2928,-3.2928,-3.3037,-3.3025,-3.3057,-3.3068,-3.3074,-3.3045,-3.309,-3.3074,-3.3051,-3.3048,-3.3023,-3.2986,-3.2976,-3.296,-3.2945,-3.2919,-3.3105,-3.3106,-3.3106,-3.3117,-3.3105,-3.3148,-3.3126,-3.3122,-3.3119,-3.3161,-3.3175,-3.3143,-3.3112,-3.3046,-3.3038,-3.2978,-3.2961,-3.2924,-3.2901,-3.2853,0,0]},{"header":{"parameterUnit":"m.s-1","parameterCategory":1,"la1":30.2992,"la2":30.254,"lo1":-89.0895,"lo2":-89.0443,"dy":0.0025,"dx":0.0025,"nx":19,"ny":19,"refTime":"2026-05-14T21:00:00:Z","depth":0,"parameterNumber":3,"parameterNumberName":"V-component_of_WINDS"},"data":[0,0,0,2.9852,2.9851,2.9824,2.9824,2.9789,2.9789,0,0,0,0,0,0,0,0,0,0,0,2.9861,2.9861,2.9852,2.9851,2.9824,2.9824,2.9789,2.9789,0,0,0,0,0,0,0,0,0,0,0,2.9861,2.9861,2.986,2.9851,2.9824,2.9824,2.9789,2.9809,0,0,0,0,0,0,0,0,0,0,2.9836,2.9845,2.9861,2.986,2.9851,2.9824,2.9824,2.981,2.9808,2.9802,0,2.9797,0,2.9792,2.9786,2.9786,0,0,0,2.985,2.9847,2.9839,2.986,2.9851,2.9824,2.9836,2.9809,2.9807,2.9799,2.9797,2.9795,2.9792,2.9786,2.9786,2.9756,2.9756,0,0,2.9852,2.9856,2.9841,2.9838,2.9843,2.9837,2.9835,2.9807,2.9805,2.9796,2.9794,2.9791,2.9786,2.9786,2.9756,2.9756,0,0,0,2.9857,2.9857,2.985,2.9839,2.9834,2.9836,2.9834,2.9806,2.9803,2.9794,2.9791,2.9786,2.9785,2.9756,2.9756,2.9757,0,0,0,2.9858,2.986,2.985,2.9853,2.9835,2.982,2.9833,2.9805,2.9802,2.9791,2.9786,2.9785,2.9757,2.9756,2.9757,2.9756,0,0,0,2.9862,2.9861,2.9857,2.9853,2.9842,2.982,2.9816,2.9805,2.98,2.9786,2.9785,2.9757,2.9756,2.9757,2.9756,2.975,0,0,0,2.9868,2.9857,2.9857,2.9843,2.9842,2.9821,2.9816,2.98,2.9788,2.9786,2.9757,2.9756,2.9757,2.9757,2.9751,2.9746,2.9744,0,0,2.9856,2.9855,2.9847,2.9847,2.9827,2.9825,2.9806,2.979,2.9784,2.9766,2.9765,2.9757,2.9756,2.975,2.9735,2.9734,0,0,0,2.9845,2.9839,2.9833,2.9822,2.9811,2.9802,2.9789,2.9783,2.9768,2.9776,2.9753,2.9753,2.9749,2.9746,2.9745,2.9742,2.9756,2.9756,2.9756,2.9832,2.9827,2.9813,2.9805,2.9795,2.9784,2.9775,2.9765,2.9761,2.9756,2.975,2.9742,2.974,2.9739,2.9735,2.9748,2.9748,2.9748,2.9748,2.9814,2.9805,2.9803,2.9788,2.9783,2.977,2.9759,2.9757,2.9744,2.9745,2.9742,2.9744,2.9738,2.9735,2.9748,2.9748,2.9748,2.9748,2.9748,2.9806,2.98,2.9795,2.9782,2.9771,2.9763,2.9752,2.9747,2.9742,2.9739,2.9733,2.9733,2.9732,2.9736,2.9736,2.9736,2.9736,2.9736,2.9736,2.9798,2.9793,2.9784,2.9774,2.9768,2.9759,2.9748,2.9742,2.9733,2.973,2.973,2.9727,2.9739,2.9742,2.9736,2.9736,2.9736,2.9736,2.9736,2.9781,2.9785,2.9772,2.9766,2.9754,2.9745,2.974,2.9727,2.9721,2.9716,2.9714,2.9724,2.9722,2.9723,2.9725,2.9716,2.9716,2.9716,2.9716,2.9774,2.9773,2.976,2.9751,2.9742,2.9737,2.9722,2.9715,2.9707,2.9703,2.9704,2.9707,2.9708,2.9706,2.9707,2.9709,2.9695,2.9695,2.9695,2.9763,2.9762,2.9751,2.9745,2.9736,2.9728,2.9714,2.9704,2.9696,2.9694,2.97,2.9701,2.9706,2.9708,2.9705,2.9706,2.971,0,0]}]]